Starlink 6190

operational
NORAD ID: 56774 Int'l Des: 2023-078 Owner: SPXS Country: US Constellation: starlink
LEOCIRCULAR

Über Starlink 6190

Beschreibung wird geladen...

Live-Position

3D-Globus wird geladen...

Nächste Überflüge

Höhenverlauf

Altitude vs Time

uPlot chart will show altitude changes over time

Zweizeiliger Elementsatz

1 56774U 23078H 25259.90728755 -.00001201 00000-0 -92888-4 0 9990
2 56774 69.9986 82.7239 0002918 266.4897 93.5928 14.98321881126157
Epoch: 16. Sept. 2025 • Age: 28 hours

Aktueller Status

Höhe 585.6 km
Geschwindigkeit 7.57 km/s
Subsatellitenpunkt 69.91°N, 143.4°E
Startdatum 31. Mai 2023
Alter 2.2 years
Typ internet

Technische Details

Klassifizierung Payload
Masse 305.00 kg
Trockenmasse 290.00 kg
Gesamtmasse 305.00 kg
Länge 0.20 m
Durchmesser 2.80 m
Spannweite 9.00 m
Form Box + pan
Hersteller SPXS
Bus-Typ Starlink
Phasenstatus In Orbit
Besitzer/Staat SPXS/US

Große Konstellationen

Loading constellations...